Back to catalog

COSMOS 2251 DEB

AliveLEO
NORAD 33911·DEBRIS·🇷🇺 Russia

Launched Jun 16, 1993 from Plesetsk Cosmodrome

Loading…

Next Passes (next 24 hours)

TLE

FreshSource: Space-Track

Epoch: Sep 13, 2026, 15:54 UTC

1 33911U 93036DQ  26256.66262073  .00008345  00000-0  10760-2 0  9997
2 33911  74.0914 343.4414 0010612 213.8932 274.2887 14.81121818927073

Track COSMOS 2251 DEB in real time with AllMySat

Download on the App Store